Home   Weather   Barquisimeto   Past weeks

Flag for Venezuela Past Weather in Barquisimeto, Venezuela — Yesterday and Last 2 Weeks

Now
70 °F

Overcast.


Feels Like: 70 °F
Forecast: 71 / 88 °F
Wind: 7 mph from Southeast

Location: Barquisimeto Airport

Current Time: Apr 28, 2017 at 8:10:33 am

Latest Report: Apr 28, 2017 at 7:00 am


Visibility: N/A

Pressure: 29.98 "Hg (28.06 "Hg at 569m altitude)

Humidity: 94%

Dew Point: 68 °F

Location of BarquisimetoLocation

Past Weather in Barquisimeto — Graph

°F

Barquisimeto Temperature Yesterday

Maximum temperature yesterday: 90 °F (at 3:00 pm)
Minimum temperature yesterday: 73 °F (at 6:00 am)
Average temperature yesterday: 82 °F

High & Low Weather Summary for the Past Weeks

 TemperatureHumidityPressure
High91 °F (Apr 24, 2:00 pm)94% (Apr 13, 5:00 pm)30.07 "Hg (Apr 13, 5:00 pm)
Low68 °F (Apr 13, 10:00 pm)33% (Apr 27, 3:00 pm)29.86 "Hg (Apr 24, 5:00 pm)
Average79 °F66%29.97 "Hg
* Reported Apr 13 6:00 am — Apr 28 6:00 am, Barquisimeto, Weather by CustomWeather, © 2017

Note: Actual official high and low records may vary slightly from our data, if they occured in-between our weather recording intervals... More about our weather records

Advertising

Barquisimeto Weather History for the Previous 24 Hours

Scroll right to see more
 ConditionsComfort  
Time TempWeatherWind HumidityBarometerVisibility
6:00 am
Fri, Apr 28
72 °FDrizzle. Overcast.12 mph88%29.98 "Hg5 mi
5:00 am73 °FPassing clouds.6 mph83%29.98 "HgN/A
11:00 pm
Thu, Apr 27
75 °FPassing clouds.7 mph74%29.98 "HgN/A
10:00 pm77 °FPassing clouds.8 mph69%29.98 "HgN/A
9:00 pm77 °FPassing clouds.9 mph69%29.95 "HgN/A
8:00 pm79 °FPassing clouds.14 mph61%29.92 "HgN/A
7:00 pm82 °FPassing clouds.8 mph48%29.89 "HgN/A
6:00 pm86 °FScattered clouds.9 mph40%29.89 "HgN/A
5:00 pm90 °FScattered clouds.12 mph33%29.89 "HgN/A
4:00 pm90 °FPassing clouds.12 mph33%29.89 "HgN/A
3:00 pm90 °FPassing clouds.9 mph33%29.92 "HgN/A
2:00 pm88 °FPassing clouds.9 mph35%29.95 "HgN/A
1:00 pm88 °FPassing clouds.13 mph38%29.98 "HgN/A
12:00 pm86 °FPassing clouds.12 mph43%29.98 "HgN/A
11:00 am84 °FScattered clouds.13 mph48%30.01 "HgN/A
10:00 am82 °FScattered clouds.8 mph55%30.01 "HgN/A
9:00 am79 °FScattered clouds.8 mph65%30.01 "HgN/A
8:00 am75 °FPartly sunny.5 mph74%30.01 "HgN/A
Weather by CustomWeather, © 2017

See weather overviewHow to use our weather pages